SJ-11-03

Satellite information

Favourite Embed

Satellite Type and Status

PAYLOADIN ORBIT

Key statistics

Satellite SJ-11-03 at a glance.

Uptime

5114

Days in orbit

Revolutions

≈ 14.6

Per day

Orbit

SSO

Sun Synchronous Orbit

Inclination

97.9

Latest

Satellite identification and parameters

Extended collection of information and parameters for SJ-11-03.

Object identification

Identified? True

Debris? False

Object name: SJ-11-03

International designator: 2011-030A

Object number (NORAD): 37730

Object ID (CCSDS): 37730

Country: PEOPLES REPUBLIC OF CHINA (PRC)

Current information (Y/N): Y

RCS size: LARGE

Orbital parameters

Period: 98.378 minutes

Inclination: 97.8846 deg

SMA: 7059.272 km

Apoapsis: 687.846 km

Periapsis: 674.427 km

RAAN: 159.5816 deg

Eccentricy: 0.0009504

Argument of periapsis: 54.4359 deg

Mean anomaly: 333.7043 deg

Mean motion: 14.63736597 rev/day

Mean motion (dot): 0.0000047 rev/day2

B* drag term: 0.000098744 1/REarth

Two-line elements (TLE)

Creation date: July 5, 2025, 11:06 p.m.

Reference frame: TEME

Reference center: EARTH

Epoch: July 5, 2025, 9:32 p.m. UTC

TLE line 0: 0 SJ-11-03

TLE line 1: 1 37730U 11030A 25186.89738003 .00000470 00000-0 98744-4 0 9992

TLE line 2: 2 37730 97.8846 159.5816 0009504 54.4359 333.7043 14.63736597746503

Live tracking on map

Real-time ground track for satellite SJ-11-03.

In-orbit conjunctions

There are no conjunctions computed for SJ-11-03, at the moment. Check back to stay up to date, as we update our databases every day.

Go to all conjunctions

Associated space launch

SJ-11-03 was lifted into orbit during the mission ‘Long March 2C | Shijian 10-03’, on board a Long March 2 space rocket.

The launch took place on July 6, 2011, 4:28 a.m. from Launch Area 4 (SLS-2 / 603).

For more information about the launch, click the button.

Launch to space Long March 2C | Shijian 10-03
Long March 2C | Shijian 10-03

Agency: N/A

Status: Launch Successful

Launch date: July 6, 2011, 4:28 a.m. UTC

Rocket: Long March 2

Launch pad: Launch Area 4 (SLS-2 / 603)

Location: Jiuquan Satellite Launch Center, People's Republic of China

...

Latest news about this satellite

There are no fresh news available about this satellite. Check back as we update our databases every day.


Newsletter sign-up

Weekly statistics, charts and insights to help you stay on top of the space industry.